Regional Weather Roundup
Issued by NWS Albany, NY

Home | Current Version | Previous Version | Graphics & Text | Print | Product List | Glossary On
Versions: 1 2 3 4 5 6 7 8 9 10 11 12 13 14 15 16 17 18 19 20 21 22 23 24 25 26 27 28 29 30 31 32 33 34 35 36 37 38 39 40 41 42 43 44 45 46 47 48 49 50
000
ASUS41 KALY 211710
RWRALY

NEW YORK STATE HOURLY WEATHER ROUNDUP
NATIONAL WEATHER SERVICE ALBANY NY
100 PM EDT MON AUG 21 2017

NOTE: "FAIR" INDICATES FEW OR NO CLOUDS BELOW 12,000 FEET WITH NO
SIGNIFICANT WEATHER AND/OR NO OBSTRUCTIONS TO VISIBILITY.

NYZ032-033-038>043-046>054-057>066-NYZ062>081-082-084-211800-
EAST


CITY           SKY/WX    TMP DP  RH WIND       PRES   REMARKS
ALBANY         MOSUNNY   82  64  54 SE6       30.12F
GLENS FALLS    SUNNY     80  66  62 S8        30.11F
POUGHKEEPSIE   CLOUDY    83  62  49 W8        30.14F
NEWBURGH       PTSUNNY   82  66  57 W7        30.18F
MONTGOMERY     MOSUNNY   83  66  56 SW10      30.15F
WHITE PLAINS   SUNNY     83  60  45 VRB5      30.16F
ISLIP          PTSUNNY   86  64  47 S10       30.16F
NEW YORK CITY  PTSUNNY   87  60  40 S12       30.15F
CENTRAL PARK   SUNNY     85  61  44 MISG      30.19F
$$

NYZ005>009-017-018-044>046-055-056-211800-
CENTRAL


CITY           SKY/WX    TMP DP  RH WIND       PRES   REMARKS
FULTON         SUNNY     83  65  54 VRB5      30.11F
SYRACUSE       MOSUNNY   86  61  42 W10       30.10F
ROME           SUNNY     83  63  50 S9        30.12F
ELMIRA         MOSUNNY   80  77  90 E5        30.14S
BINGHAMTON     PTSUNNY   77  65  66 VRB6      30.18F
MONTICELLO     PTSUNNY   79  64  60 VRB5      30.21F
$$

NYZ026>034-041>043-087-211800-
NORTH


CITY           SKY/WX    TMP DP  RH WIND       PRES   REMARKS
WATERTOWN      SUNNY     81  64  56 SW10      30.09S
FORT DRUM      NOT AVBL
OGDENSBURG     FAIR      83  63  50 SW7       30.06F
MASSENA        SUNNY     83  64  52 W10       30.06F
SARANAC LAKE   MOSUNNY   78  61  55 SW13G20   30.12F
PLATTSBURGH    SUNNY     80  67  64 SE14      30.06F
$$

NYZ001>004-010>016-019>021-085-211800-
WEST


CITY           SKY/WX    TMP DP  RH WIND       PRES   REMARKS
NIAGARA FALLS  SUNNY     83  66  56 SW5       30.09F
BUFFALO        MOSUNNY   81  66  60 SW12      30.11F
DUNKIRK        SUNNY     80  70  71 W10       30.12F
JAMESTOWN      PTSUNNY   79  66  65 W10       30.17F
WELLSVILLE     SUNNY     82  63  52 W14       30.19F
ROCHESTER      MOSUNNY   82  67  60 S7        30.10F
PENN YAN       SUNNY     81  63  54 S9        30.13F
$$

             KEY
       WCI = WIND CHILL INDEX
       VSB = VISIBILITY
       HX  = HEAT INDEX
$$



USA.gov is the U.S. government's official web portal to all federal, state and local government web resources and services.